This demonstration page uses our WeatherBlox Daily Observations layout. Learn more.

Left ArrowRight Arrow

44.8408, -93.29828

Hourly Observations for May 29, 2022

Temp ( °F °C ) Dew Point ( °F °C ) Humidity (%) Winds ( mph kmh ) Pressure ( in mb ) Visibility ( mi km ) Precip ( " mm )
12:53 am 00:53 Mostly Clear 75 23.9 59 15 58 58 S 10 17 29.55 1001 10 16 0.00 0.00
1:53 am 01:53 Mostly Clear 74 23.3 59 15 60 60 S 15 24 29.54 1000 10 16 0.00 0.00
2:53 am 02:53 Mostly Cloudy 71 21.7 59 15 66 66 SSE 9 15 29.52 1000 10 16 0.00 0.00
3:53 am 03:53 Cloudy 70 21.1 58 14.4 66 66 S 8 13 29.54 1000 10 16 0.00 0.00
4:53 am 04:53 Clear 67 19.4 58 14.4 73 73 SE 8 13 29.52 1000 10 16 0.00 0.00
5:53 am 05:53 Mostly Cloudy 66 18.9 59 15 78 78 SE 8 13 29.53 1000 10 16 0.00 0.00
6:53 am 06:53 Cloudy 67 19.4 59 15 76 76 SE 8 13 29.53 1000 10 16 0.00 0.00
7:53 am 07:53 Cloudy 67 19.4 60 15.6 79 79 SSE 9 15 29.57 1002 10 16 0.00 0.00
8:47 am 08:47 Cloudy with Nearby Thunderstorms 66 19 61 16 83 83 E 22 35 29.45 997 10 16 0.00 0.00
8:53 am 08:53 Cloudy with Nearby Thunderstorms 66 18.9 61 16.1 84 84 SE 23 37 29.52 1000 10 16 0.00 0.00
9:09 am 09:09 Cloudy with Light Rain 66 18.9 61 16.1 84 84 ESE 23 37 29.45 997 10 16 0.01 0.25
9:30 am 09:30 Cloudy 66 18.9 61 16.1 84 84 SSW 16 26 29.51 999 10 16 0.01 0.25
9:53 am 09:53 Cloudy 66 18.9 61 16.1 84 84 SSE 17 28 29.49 999 10 16 0.01 0.25
10:53 am 10:53 Mostly Cloudy 69 20.6 62 16.7 78 78 SSE 16 26 29.48 998 10 16 0.00 0.00
11:53 am 11:53 Cloudy 72 22.2 63 17.2 73 73 SSE 16 26 29.49 999 10 16 0.00 0.00
12:08 pm 12:08 Mostly Cloudy 75 23.9 63 17.2 66 66 SSE 18 30 29.48 998 10 16 0.00 0.00
12:53 pm 12:53 Mostly Cloudy 74 23.3 62 16.7 67 67 SSE 23 37 29.48 998 10 16 0.00 0.00
1:53 pm 13:53 Cloudy 74 23.3 63 17.2 69 69 SE 14 22 29.45 997 10 16 0.00 0.00
2:37 pm 14:37 Cloudy 75 23.9 64 17.8 69 69 SSE 16 26 29.42 996 10 16 0.00 0.00
2:53 pm 14:53 Cloudy 77 25 65 18.3 66 66 ESE 16 26 29.44 997 10 16 0.00 0.00
3:05 pm 15:05 Cloudy 77 25 65 18.3 66 66 SE 21 33 29.41 996 10 16 0.00 0.00
3:53 pm 15:53 Mostly Cloudy 80 26.7 66 18.9 62 62 SE 13 20 29.42 996 10 16 0.00 0.00
4:53 pm 16:53 Cloudy 81 27.2 64 17.8 57 57 SE 14 22 29.41 996 10 16 0.00 0.00
5:53 pm 17:53 Cloudy 81 27.2 65 18.3 58 58 SSE 14 22 29.41 996 10 16 0.00 0.00
6:53 pm 18:53 Cloudy 82 27.8 64 17.8 55 55 S 16 26 29.41 996 10 16 0.00 0.00
7:53 pm 19:53 Cloudy 81 27.2 63 17.2 54 54 S 20 31 29.43 997 10 16 0.00 0.00
8:53 pm 20:53 Cloudy 79 26.1 64 17.8 60 60 S 10 17 29.45 997 10 16 0.00 0.00
9:53 pm 21:53 Cloudy 77 25 65 18.3 66 66 SE 9 15 29.47 998 10 16 0.00 0.00
10:53 pm 22:53 Mostly Cloudy 76 24.4 65 18.3 69 69 SSE 9 15 29.47 998 10 16 0.00 0.00
11:53 pm 23:53 Mostly Cloudy 76 24.4 65 18.3 69 69 SSE 10 17 29.48 998 10 16 0.00 0.00

Powered by AerisWeather